sat.trackr.live / text

‹ back to catalog

INMARSAT 6-F1

NORAD 50319 · 2021-128A

PAYLOAD ACTIVE UNKNOWN

§ Identity

Operator
Country
IM
Launch date
2021-12-22
Launch site
TANSC
Launch vehicle
Mass (kg)
RCS (m²)

Purposes: comms

External: N2YO · Heavens-Above · Gunter

§ Orbital elements

Epoch: 2026-09-12T04:24:21.687840Z

Period
1,436.09 min
Inclination
0.0197°
Eccentricity
0.0000102
Mean motion
1.00272563 rev/d
Perigee alt
35,785.9 km
Apogee alt
35,786.8 km
Semi-major
42,164.5 km
B*
0.0000e+0
RAAN
135.5526°
Arg perigee
338.4173°
Mean anomaly
27.0483°
Rev number
1,713

§ Raw data

INMARSAT 6-F11 50319U 21128A   26255.18358435 -.00000187  00000+0  00000+0 0  99942 50319   0.0197 135.5526 0000102 338.4173  27.0483  1.00272563 17138

JSON: /api/v1/satellites/50319 · /tle

For live sub-satellite position, see the globe view (requires WebGL).

§ Visibility from observer

Set your observer location to see the next 7 days of passes ≥ 10°. The values pass through the URL so the page stays shareable.

No JS? Fill the form by hand. The geolocation button needs JavaScript.